DW7780 Weather Reports


time (UTC)temp
C
wind
direction
speed
KPH
gust
KPH
rain 1hr
cm
rain 24hr
cm
rain mn
cm
humidity
%
barometer
mb
20260502220029 14 0 0.0 8.0 0.00 0.03 0.03 40 1010.3
20260502214528 15 309 3.2 12.9 0.00 0.03 0.03 39 1010.4
20260502213029 14 261 3.2 16.1 0.00 0.03 0.03 42 1010.3
20260502211528 14 311 3.2 11.3 0.00 0.03 0.03 39 1010.2
20260502210030 14 0 0.0 6.4 0.00 0.03 0.03 41 1010.0
20260502204529 14 261 3.2 11.3 0.00 0.03 0.03 40 1009.9
20260502203028 15 0 0.0 14.5 0.00 0.03 0.03 43 1010.1
20260502201533 15 199 0.0 8.0 0.00 0.03 0.03 38 1010.1
20260502200029 14 0 0.0 6.4 0.00 0.03 0.03 43 1010.4
20260502194525 14 0 0.0 9.7 0.00 0.03 0.03 46 1010.6
20260502193028 14 0 3.2 12.9 0.00 0.03 0.03 43 1010.9
20260502191528 14 264 1.6 8.0 0.00 0.03 0.03 46 1011.2
20260502190035 14 0 3.2 14.5 0.00 0.03 0.03 47 1011.5
20260502184542 13 253 0.0 12.9 0.00 0.03 0.03 48 1011.6
20260502183035 13 288 0.0 9.7 0.00 0.03 0.03 48 1011.9
20260502181539 13 5 1.6 9.7 0.00 0.03 0.03 46 1011.8
20260502163031 13 288 0.0 8.0 0.00 0.03 0.03 53 1012.6
20260502161529 13 0 0.0 14.5 0.00 0.03 0.03 51 1012.9
20260502151530 11 277 3.2 14.5 0.00 0.03 0.03 63 1012.8
20260502123033 10 328 0.0 8.0 0.03 0.03 0.03 80 1012.8
20260502121536 10 0 0.0 14.5 0.03 0.03 0.03 80 1012.7
20260502114527 9 0 0.0 9.7 0.00 0.00 0.00 84 1012.5
20260502113026 9 0 0.0 0.0 0.00 0.00 0.00 86 1012.2
20260502111530 8 0 0.0 0.0 0.00 0.00 0.00 91 1012.1
20260502110030 8 0 0.0 0.0 0.00 0.00 0.00 91 1011.9
20260502104530 8 0 0.0 0.0 0.00 0.00 0.00 91 1011.7
20260502103031 7 0 0.0 0.0 0.00 0.00 0.00 90 1011.6
20260502101540 7 0 0.0 0.0 0.00 0.00 0.00 90 1011.8
20260502091528 8 0 0.0 0.0 0.00 0.00 0.00 89 1011.4
20260502071528 8 0 0.0 0.0 0.00 0.00 0.00 89 1011.7
20260502070028 8 0 0.0 0.0 0.00 0.00 0.00 88 1011.6
20260502064530 8 0 0.0 0.0 0.00 0.00 0.00 87 1011.7
20260502063030 9 0 0.0 0.0 0.00 0.00 0.00 86 1011.6
20260502061529 9 0 0.0 0.0 0.00 0.00 0.00 85 1011.8
20260502060026 9 0 0.0 0.0 0.00 0.00 0.00 86 1011.6
20260502054530 9 0 0.0 0.0 0.00 0.00 0.00 86 1011.9
20260502053028 9 0 0.0 0.0 0.00 0.00 0.00 84 1012.2
20260502051530 9 0 0.0 0.0 0.00 0.00 0.00 83 1012.1
20260502050035 9 0 0.0 0.0 0.00 0.00 0.00 81 1012.1
20260502044527 9 0 0.0 0.0 0.00 0.00 0.00 82 1012.1
20260502043030 9 0 0.0 0.0 0.00 0.00 0.00 81 1011.8
20260502041542 9 0 0.0 0.0 0.00 0.00 0.00 80 1011.8
20260502040026 9 0 0.0 0.0 0.00 0.00 0.00 81 1011.5
20260502034528 9 0 0.0 0.0 0.00 0.00 0.00 80 1011.5
20260502033031 9 0 0.0 0.0 0.00 0.00 0.00 81 1011.5
20260502031530 9 0 0.0 0.0 0.00 0.00 0.00 80 1011.4
20260502030028 9 0 0.0 0.0 0.00 0.00 0.00 82 1011.5
20260502024528 9 0 0.0 0.0 0.00 0.00 0.00 80 1011.8
20260502023026 8 0 0.0 0.0 0.00 0.00 0.00 79 1011.9
20260502021528 8 0 0.0 0.0 0.00 0.00 0.00 79 1011.9
20260502020028 8 0 0.0 0.0 0.00 0.00 0.00 79 1011.7
20260502014529 8 0 0.0 0.0 0.00 0.00 0.00 79 1011.6
20260502013028 9 0 0.0 0.0 0.00 0.00 0.00 78 1011.5
20260502011530 9 0 0.0 0.0 0.00 0.00 0.00 75 1011.3
20260502010030 10 0 0.0 0.0 0.00 0.00 0.00 72 1011.3
20260502004528 11 0 0.0 0.0 0.00 0.00 0.00 68 1011.1
20260502003025 12 0 0.0 0.0 0.00 0.00 0.00 64 1010.9
20260502001530 12 0 0.0 0.0 0.00 0.00 0.00 62 1010.9
20260502000030 13 0 0.0 0.0 0.00 0.00 0.00 59 1010.8
20260501234528 15 0 0.0 3.2 0.00 0.08 0.00 51 1010.7
20260501233027 15 0 0.0 9.7 0.00 0.08 0.00 48 1010.4
20260501231546 16 0 0.0 4.8 0.00 0.08 0.00 45 1010.3
20260501230029 16 265 0.0 6.4 0.00 0.08 0.00 47 1010.3
20260501224529 16 0 1.6 11.3 0.00 0.08 0.00 44 1010.3
20260501223042 16 0 0.0 6.4 0.00 0.08 0.00 44 1010.3
20260501221529 16 254 3.2 12.9 0.00 0.08 0.00 44 1010.4